Time,TemperatureF,DewpointF,PressureIn,WindDirection,WindDirectionDegrees,WindSpeedMPH,WindSpeedGustMPH,Humidity,HourlyPrecipIn,Conditions,Clouds,dailyrainin,SoftwareType,DateUTC
2013-08-09 00:04:00,82.5,38.6,29.62,WNW,297,3.0,5.0,21,0.00,,,0.00,Wunderground v.1.15,2013-08-09 07:04:00,
2013-08-09 00:10:00,82.1,39.5,29.62,WNW,287,4.0,4.0,22,0.00,,,0.00,Wunderground v.1.15,2013-08-09 07:10:00,
2013-08-09 00:15:00,83.0,36.5,29.62,WNW,284,3.0,4.0,19,0.00,,,0.00,Wunderground v.1.15,2013-08-09 07:15:00,
2013-08-09 00:21:00,83.7,35.7,29.62,West,278,3.0,3.0,18,0.00,,,0.00,Wunderground v.1.15,2013-08-09 07:21:00,
2013-08-09 00:27:00,82.8,36.3,29.61,WNW,295,3.0,5.0,19,0.00,,,0.00,Wunderground v.1.15,2013-08-09 07:27:00,
2013-08-09 00:32:00,82.4,36.0,29.61,WNW,300,4.0,6.0,19,0.00,,,0.00,Wunderground v.1.15,2013-08-09 07:32:00,
2013-08-09 00:38:00,82.3,35.9,29.61,WNW,298,5.0,6.0,19,0.00,,,0.00,Wunderground v.1.15,2013-08-09 07:38:00,
2013-08-09 00:44:00,82.0,37.0,29.62,WNW,298,5.0,6.0,20,0.00,,,0.00,Wunderground v.1.15,2013-08-09 07:44:00,
2013-08-09 00:50:00,81.2,37.5,29.62,WNW,297,5.0,6.0,21,0.00,,,0.00,Wunderground v.1.15,2013-08-09 07:50:00,
2013-08-09 00:55:00,81.2,37.5,29.61,WNW,301,5.0,6.0,21,0.00,,,0.00,Wunderground v.1.15,2013-08-09 07:55:00,
2013-08-09 01:01:00,81.1,36.2,29.62,WNW,298,4.0,4.0,20,0.00,,,0.00,Wunderground v.1.15,2013-08-09 08:01:00,
2013-08-09 01:07:00,81.0,37.4,29.61,WNW,288,4.0,5.0,21,0.00,,,0.00,Wunderground v.1.15,2013-08-09 08:07:00,
2013-08-09 01:12:00,81.1,36.2,29.61,West,268,3.0,3.0,20,0.00,,,0.00,Wunderground v.1.15,2013-08-09 08:12:00,
2013-08-09 01:18:00,81.6,36.6,29.61,West,266,2.0,3.0,20,0.00,,,0.00,Wunderground v.1.15,2013-08-09 08:18:00,
2013-08-09 01:23:00,81.6,36.6,29.61,WSW,238,1.0,2.0,20,0.00,,,0.00,Wunderground v.1.15,2013-08-09 08:23:00,
2013-08-09 01:28:00,81.3,36.4,29.61,WSW,249,1.0,2.0,20,0.00,,,0.00,Wunderground v.1.15,2013-08-09 08:28:00,
2013-08-09 01:33:00,81.0,36.1,29.61,WSW,249,1.0,1.0,20,0.00,,,0.00,Wunderground v.1.15,2013-08-09 08:33:00,
2013-08-09 01:39:00,80.7,37.1,29.61,West,273,1.0,2.0,21,0.00,,,0.00,Wunderground v.1.15,2013-08-09 08:39:00,
2013-08-09 01:45:00,80.7,37.1,29.61,WSW,252,2.0,2.0,21,0.00,,,0.00,Wunderground v.1.15,2013-08-09 08:45:00,
2013-08-09 01:51:00,80.4,36.9,29.61,WSW,253,1.0,1.0,21,0.00,,,0.00,Wunderground v.1.15,2013-08-09 08:51:00,
2013-08-09 01:57:00,80.2,36.7,29.61,West,276,1.0,2.0,21,0.00,,,0.00,Wunderground v.1.15,2013-08-09 08:57:00,
2013-08-09 02:02:00,80.2,36.7,29.61,WNW,294,2.0,4.0,21,0.00,,,0.00,Wunderground v.1.15,2013-08-09 09:02:00,
2013-08-09 02:08:00,80.0,37.7,29.61,NW,311,3.0,5.0,22,0.00,,,0.00,Wunderground v.1.15,2013-08-09 09:08:00,
2013-08-09 02:13:00,79.8,37.6,29.61,WNW,293,4.0,4.0,22,0.00,,,0.00,Wunderground v.1.15,2013-08-09 09:13:00,
2013-08-09 02:19:00,79.9,37.6,29.61,WNW,293,4.0,5.0,22,0.00,,,0.00,Wunderground v.1.15,2013-08-09 09:19:00,
2013-08-09 02:25:00,80.0,37.7,29.61,WNW,297,4.0,4.0,22,0.00,,,0.00,Wunderground v.1.15,2013-08-09 09:25:00,
2013-08-09 02:31:00,79.2,38.2,29.61,WNW,300,3.0,4.0,23,0.00,,,0.00,Wunderground v.1.15,2013-08-09 09:31:00,
2013-08-09 02:36:00,79.2,38.2,29.61,WNW,289,3.0,4.0,23,0.00,,,0.00,Wunderground v.1.15,2013-08-09 09:36:00,
2013-08-09 02:42:00,79.0,38.0,29.61,WNW,300,3.0,3.0,23,0.00,,,0.00,Wunderground v.1.15,2013-08-09 09:42:00,
2013-08-09 02:48:00,78.5,37.6,29.61,WNW,283,2.0,3.0,23,0.00,,,0.00,Wunderground v.1.15,2013-08-09 09:48:00,
2013-08-09 02:53:00,78.2,37.4,29.61,NW,326,1.0,2.0,23,0.00,,,0.00,Wunderground v.1.15,2013-08-09 09:53:00,
2013-08-09 02:59:00,78.8,37.9,29.61,NW,318,2.0,4.0,23,0.00,,,0.00,Wunderground v.1.15,2013-08-09 09:59:00,
2013-08-09 03:04:00,78.7,37.8,29.61,NW,326,3.0,4.0,23,0.00,,,0.00,Wunderground v.1.15,2013-08-09 10:04:00,
2013-08-09 03:10:00,78.8,37.9,29.61,NNW,328,4.0,4.0,23,0.00,,,0.00,Wunderground v.1.15,2013-08-09 10:10:00,
2013-08-09 03:14:00,79.0,36.9,29.60,NNW,332,4.0,4.0,22,0.00,,,0.00,Wunderground v.1.15,2013-08-09 10:14:00,
2013-08-09 03:20:00,79.2,37.1,29.60,NW,316,3.0,3.0,22,0.00,,,0.00,Wunderground v.1.15,2013-08-09 10:20:00,
2013-08-09 03:26:00,79.1,38.1,29.60,NW,311,3.0,4.0,23,0.00,,,0.00,Wunderground v.1.15,2013-08-09 10:26:00,
2013-08-09 03:31:00,78.8,38.9,29.61,NNW,332,3.0,4.0,24,0.00,,,0.00,Wunderground v.1.15,2013-08-09 10:31:00,
2013-08-09 03:37:00,77.9,38.2,29.60,NW,323,3.0,4.0,24,0.00,,,0.00,Wunderground v.1.15,2013-08-09 10:37:00,
2013-08-09 03:43:00,77.7,38.0,29.60,NW,317,2.0,3.0,24,0.00,,,0.00,Wunderground v.1.15,2013-08-09 10:43:00,
2013-08-09 03:49:00,78.0,38.3,29.61,WNW,297,2.0,3.0,24,0.00,,,0.00,Wunderground v.1.15,2013-08-09 10:49:00,
2013-08-09 03:55:00,78.3,37.4,29.60,WNW,297,3.0,5.0,23,0.00,,,0.00,Wunderground v.1.15,2013-08-09 10:55:00,
2013-08-09 04:01:00,79.0,38.0,29.60,WNW,301,3.0,6.0,23,0.00,,,0.00,Wunderground v.1.15,2013-08-09 11:01:00,
2013-08-09 04:07:00,78.7,37.8,29.60,NW,306,3.0,6.0,23,0.00,,,0.00,Wunderground v.1.15,2013-08-09 11:07:00,
2013-08-09 04:13:00,78.6,37.7,29.60,NW,304,3.0,5.0,23,0.00,,,0.00,Wunderground v.1.15,2013-08-09 11:13:00,
2013-08-09 04:19:00,78.7,37.8,29.60,WNW,297,4.0,5.0,23,0.00,,,0.00,Wunderground v.1.15,2013-08-09 11:19:00,
2013-08-09 04:24:00,78.8,37.9,29.60,WNW,301,4.0,4.0,23,0.00,,,0.00,Wunderground v.1.15,2013-08-09 11:24:00,
2013-08-09 04:30:00,78.5,37.6,29.60,WNW,297,3.0,4.0,23,0.00,,,0.00,Wunderground v.1.15,2013-08-09 11:30:00,
2013-08-09 04:35:00,78.5,38.7,29.61,WNW,295,4.0,5.0,24,0.00,,,0.00,Wunderground v.1.15,2013-08-09 11:35:00,
2013-08-09 04:41:00,78.2,38.4,29.60,WNW,297,4.0,5.0,24,0.00,,,0.00,Wunderground v.1.15,2013-08-09 11:41:00,
2013-08-09 04:46:00,78.4,38.6,29.60,WNW,297,4.0,6.0,24,0.00,,,0.00,Wunderground v.1.15,2013-08-09 11:46:00,
2013-08-09 04:51:00,78.5,38.7,29.60,WNW,293,4.0,4.0,24,0.00,,,0.00,Wunderground v.1.15,2013-08-09 11:51:00,
2013-08-09 04:57:00,78.4,38.6,29.60,WNW,297,4.0,5.0,24,0.00,,,0.00,Wunderground v.1.15,2013-08-09 11:57:00,
2013-08-09 05:02:00,78.4,38.6,29.61,WNW,297,4.0,6.0,24,0.00,,,0.00,Wunderground v.1.15,2013-08-09 12:02:00,
2013-08-09 05:08:00,78.6,38.8,29.61,WNW,300,5.0,6.0,24,0.00,,,0.00,Wunderground v.1.15,2013-08-09 12:08:00,
2013-08-09 05:14:00,78.7,37.8,29.61,WNW,300,5.0,7.0,23,0.00,,,0.00,Wunderground v.1.15,2013-08-09 12:14:00,
2013-08-09 05:20:00,78.3,38.5,29.61,NW,304,6.0,6.0,24,0.00,,,0.00,Wunderground v.1.15,2013-08-09 12:20:00,
2013-08-09 05:25:00,78.2,38.4,29.61,WNW,296,6.0,7.0,24,0.00,,,0.00,Wunderground v.1.15,2013-08-09 12:25:00,
2013-08-09 05:31:00,77.9,38.2,29.61,NW,304,5.0,6.0,24,0.00,,,0.00,Wunderground v.1.15,2013-08-09 12:31:00,
2013-08-09 05:37:00,77.5,38.9,29.62,WNW,297,5.0,6.0,25,0.00,,,0.00,Wunderground v.1.15,2013-08-09 12:37:00,
2013-08-09 05:42:00,77.3,38.7,29.62,West,266,4.0,4.0,25,0.00,,,0.00,Wunderground v.1.15,2013-08-09 12:42:00,
2013-08-09 05:48:00,76.7,39.2,29.62,West,277,3.0,4.0,26,0.00,,,0.00,Wunderground v.1.15,2013-08-09 12:48:00,
2013-08-09 05:53:00,76.5,39.0,29.62,WNW,294,2.0,4.0,26,0.00,,,0.00,Wunderground v.1.15,2013-08-09 12:53:00,
2013-08-09 05:59:00,76.8,38.3,29.62,SW,233,2.0,4.0,25,0.00,,,0.00,Wunderground v.1.15,2013-08-09 12:59:00,
2013-08-09 06:04:00,77.4,39.8,29.63,WSW,257,2.0,2.0,26,0.00,,,0.00,Wunderground v.1.15,2013-08-09 13:04:00,
2013-08-09 06:09:00,77.1,39.6,29.63,WNW,285,1.0,2.0,26,0.00,,,0.00,Wunderground v.1.15,2013-08-09 13:09:00,
2013-08-09 06:14:00,77.5,39.9,29.63,North,352,1.0,2.0,26,0.00,,,0.00,Wunderground v.1.15,2013-08-09 13:14:00,
2013-08-09 06:20:00,77.9,41.2,29.63,NW,307,2.0,2.0,27,0.00,,,0.00,Wunderground v.1.15,2013-08-09 13:20:00,
2013-08-09 06:25:00,78.7,39.9,29.63,WNW,295,2.0,3.0,25,0.00,,,0.00,Wunderground v.1.15,2013-08-09 13:25:00,
2013-08-09 06:31:00,79.3,40.4,29.63,NNW,333,2.0,3.0,25,0.00,,,0.00,Wunderground v.1.15,2013-08-09 13:31:00,
2013-08-09 06:37:00,79.8,40.8,29.63,NW,326,3.0,3.0,25,0.00,,,0.00,Wunderground v.1.15,2013-08-09 13:37:00,
2013-08-09 06:42:00,80.1,41.1,29.63,NNW,329,3.0,3.0,25,0.00,,,0.00,Wunderground v.1.15,2013-08-09 13:42:00,
2013-08-09 06:48:00,80.3,40.2,29.63,NW,322,3.0,4.0,24,0.00,,,0.00,Wunderground v.1.15,2013-08-09 13:48:00,
2013-08-09 06:53:00,80.5,41.4,29.63,NNW,330,3.0,3.0,25,0.00,,,0.00,Wunderground v.1.15,2013-08-09 13:53:00,
2013-08-09 06:59:00,80.7,41.6,29.63,North,357,3.0,5.0,25,0.00,,,0.00,Wunderground v.1.15,2013-08-09 13:59:00,
2013-08-09 07:05:00,81.1,41.9,29.64,NNW,339,4.0,4.0,25,0.00,,,0.00,Wunderground v.1.15,2013-08-09 14:05:00,
2013-08-09 07:11:00,81.5,42.3,29.63,NNW,342,4.0,4.0,25,0.00,,,0.00,Wunderground v.1.15,2013-08-09 14:11:00,
2013-08-09 07:17:00,82.1,41.7,29.63,NNW,341,3.0,4.0,24,0.00,,,0.00,Wunderground v.1.15,2013-08-09 14:17:00,
2013-08-09 07:22:00,82.7,41.1,29.63,NNW,347,3.0,3.0,23,0.00,,,0.00,Wunderground v.1.15,2013-08-09 14:22:00,
2013-08-09 07:27:00,83.6,48.0,29.64,ESE,113,2.0,3.0,29,0.00,,,0.00,Wunderground v.1.15,2013-08-09 14:27:00,
2013-08-09 07:32:00,84.2,46.6,29.64,SE,133,2.0,2.0,27,0.00,,,0.00,Wunderground v.1.15,2013-08-09 14:32:00,
2013-08-09 07:38:00,84.8,48.1,29.64,ESE,115,2.0,2.0,28,0.00,,,0.00,Wunderground v.1.15,2013-08-09 14:38:00,
2013-08-09 07:43:00,85.4,45.6,29.64,South,173,1.0,4.0,25,0.00,,,0.00,Wunderground v.1.15,2013-08-09 14:43:00,
2013-08-09 07:49:00,85.9,48.0,29.64,South,170,3.0,4.0,27,0.00,,,0.00,Wunderground v.1.15,2013-08-09 14:49:00,
2013-08-09 07:54:00,85.1,47.4,29.64,South,186,3.0,5.0,27,0.00,,,0.00,Wunderground v.1.15,2013-08-09 14:54:00,
2013-08-09 08:00:00,85.1,44.2,29.64,SSE,167,3.0,3.0,24,0.00,,,0.00,Wunderground v.1.15,2013-08-09 15:00:00,
2013-08-09 08:05:00,85.2,44.3,29.64,SW,226,3.0,3.0,24,0.00,,,0.00,Wunderground v.1.15,2013-08-09 15:05:00,
2013-08-09 08:11:00,85.0,43.0,29.64,South,179,3.0,4.0,23,0.00,,,0.00,Wunderground v.1.15,2013-08-09 15:11:00,
2013-08-09 08:17:00,85.2,43.2,29.64,SE,135,3.0,4.0,23,0.00,,,0.00,Wunderground v.1.15,2013-08-09 15:17:00,
2013-08-09 08:23:00,85.1,43.1,29.64,SSW,198,3.0,6.0,23,0.00,,,0.00,Wunderground v.1.15,2013-08-09 15:23:00,
2013-08-09 08:29:00,84.9,41.8,29.64,SSW,207,4.0,6.0,22,0.00,,,0.00,Wunderground v.1.15,2013-08-09 15:29:00,
2013-08-09 08:34:00,85.0,43.0,29.64,SSE,153,3.0,4.0,23,0.00,,,0.00,Wunderground v.1.15,2013-08-09 15:34:00,
2013-08-09 08:40:00,85.4,43.4,29.64,SW,226,2.0,2.0,23,0.00,,,0.00,Wunderground v.1.15,2013-08-09 15:40:00,
2013-08-09 08:46:00,85.2,40.8,29.65,SSE,165,2.0,3.0,21,0.00,,,0.00,Wunderground v.1.15,2013-08-09 15:46:00,
2013-08-09 08:51:00,85.4,42.2,29.64,SSW,198,3.0,4.0,22,0.00,,,0.00,Wunderground v.1.15,2013-08-09 15:51:00,
2013-08-09 08:57:00,85.4,42.2,29.64,SSE,163,4.0,5.0,22,0.00,,,0.00,Wunderground v.1.15,2013-08-09 15:57:00,
2013-08-09 09:02:00,86.3,43.0,29.65,SSE,159,4.0,4.0,22,0.00,,,0.00,Wunderground v.1.15,2013-08-09 16:02:00,
2013-08-09 09:08:00,87.5,44.0,29.65,SE,124,3.0,4.0,22,0.00,,,0.00,Wunderground v.1.15,2013-08-09 16:08:00,
2013-08-09 09:13:00,88.2,43.3,29.65,SSW,207,2.0,3.0,21,0.00,,,0.00,Wunderground v.1.15,2013-08-09 16:13:00,
2013-08-09 09:18:00,88.6,43.7,29.65,SSE,148,2.0,6.0,21,0.00,,,0.00,Wunderground v.1.15,2013-08-09 16:18:00,
2013-08-09 09:24:00,88.8,42.6,29.65,ESE,104,2.0,2.0,20,0.00,,,0.00,Wunderground v.1.15,2013-08-09 16:24:00,
2013-08-09 09:29:00,89.5,43.1,29.65,South,181,2.0,5.0,20,0.00,,,0.00,Wunderground v.1.15,2013-08-09 16:29:00,
2013-08-09 09:34:00,90.0,42.2,29.65,SW,233,3.0,5.0,19,0.00,,,0.00,Wunderground v.1.15,2013-08-09 16:34:00,
2013-08-09 09:40:00,90.9,44.3,29.65,SSE,160,2.0,3.0,20,0.00,,,0.00,Wunderground v.1.15,2013-08-09 16:40:00,
2013-08-09 09:45:00,91.6,43.5,29.65,SSW,197,2.0,5.0,19,0.00,,,0.00,Wunderground v.1.15,2013-08-09 16:45:00,
2013-08-09 09:50:00,91.4,43.3,29.65,SSE,167,3.0,3.0,19,0.00,,,0.00,Wunderground v.1.15,2013-08-09 16:50:00,
2013-08-09 09:56:00,91.4,43.3,29.65,SE,143,3.0,6.0,19,0.00,,,0.00,Wunderground v.1.15,2013-08-09 16:56:00,
2013-08-09 10:01:00,91.3,41.9,29.65,SSW,203,5.0,5.0,18,0.00,,,0.00,Wunderground v.1.15,2013-08-09 17:01:00,
2013-08-09 10:07:00,91.3,41.9,29.65,SW,217,4.0,6.0,18,0.00,,,0.00,Wunderground v.1.15,2013-08-09 17:07:00,
2013-08-09 10:12:00,90.7,39.9,29.65,WNW,285,3.0,4.0,17,0.00,,,0.00,Wunderground v.1.15,2013-08-09 17:12:00,
2013-08-09 10:17:00,91.6,40.6,29.65,SSW,204,4.0,6.0,17,0.00,,,0.00,Wunderground v.1.15,2013-08-09 17:17:00,
2013-08-09 10:22:00,92.6,39.9,29.65,ESE,118,4.0,6.0,16,0.00,,,0.00,Wunderground v.1.15,2013-08-09 17:22:00,
2013-08-09 10:28:00,92.9,41.7,29.65,SE,143,4.0,7.0,17,0.00,,,0.00,Wunderground v.1.15,2013-08-09 17:28:00,
2013-08-09 10:33:00,93.6,40.7,29.65,West,262,3.0,4.0,16,0.00,,,0.00,Wunderground v.1.15,2013-08-09 17:33:00,
2013-08-09 10:39:00,94.1,41.1,29.64,SSW,192,2.0,4.0,16,0.00,,,0.00,Wunderground v.1.15,2013-08-09 17:39:00,
2013-08-09 10:44:00,94.9,40.0,29.64,SE,129,3.0,7.0,15,0.00,,,0.00,Wunderground v.1.15,2013-08-09 17:44:00,
2013-08-09 10:48:00,94.6,39.8,29.64,SE,129,5.0,10.0,15,0.00,,,0.00,Wunderground v.1.15,2013-08-09 17:48:00,
2013-08-09 10:54:00,94.7,41.5,29.64,East,82,4.0,5.0,16,0.00,,,0.00,Wunderground v.1.15,2013-08-09 17:54:00,
2013-08-09 10:59:00,94.5,39.7,29.64,SW,229,3.0,11.0,15,0.00,,,0.00,Wunderground v.1.15,2013-08-09 17:59:00,
2013-08-09 11:04:00,94.8,38.2,29.64,South,190,6.0,10.0,14,0.00,,,0.00,Wunderground v.1.15,2013-08-09 18:04:00,
2013-08-09 11:09:00,95.3,40.3,29.64,SW,222,6.0,10.0,15,0.00,,,0.00,Wunderground v.1.15,2013-08-09 18:09:00,
2013-08-09 11:14:00,95.9,39.0,29.64,SSE,167,5.0,13.0,14,0.00,,,0.00,Wunderground v.1.15,2013-08-09 18:14:00,
2013-08-09 11:20:00,96.2,39.3,29.63,South,185,5.0,8.0,14,0.00,,,0.00,Wunderground v.1.15,2013-08-09 18:20:00,
2013-08-09 11:25:00,96.5,39.5,29.63,SW,232,5.0,8.0,14,0.00,,,0.00,Wunderground v.1.15,2013-08-09 18:25:00,
2013-08-09 11:31:00,97.3,40.1,29.63,SSE,158,6.0,7.0,14,0.00,,,0.00,Wunderground v.1.15,2013-08-09 18:31:00,
2013-08-09 11:37:00,97.0,41.7,29.63,SE,146,5.0,7.0,15,0.00,,,0.00,Wunderground v.1.15,2013-08-09 18:37:00,
2013-08-09 11:42:00,97.1,41.8,29.63,SSE,165,5.0,13.0,15,0.00,,,0.00,Wunderground v.1.15,2013-08-09 18:42:00,
2013-08-09 11:48:00,96.5,43.0,29.63,ESE,110,8.0,13.0,16,0.00,,,0.00,Wunderground v.1.15,2013-08-09 18:48:00,
2013-08-09 11:53:00,97.1,43.4,29.62,South,170,7.0,12.0,16,0.00,,,0.00,Wunderground v.1.15,2013-08-09 18:53:00,
2013-08-09 11:58:00,96.8,44.8,29.62,South,174,8.0,12.0,17,0.00,,,0.00,Wunderground v.1.15,2013-08-09 18:58:00,
2013-08-09 12:04:00,97.3,45.2,29.62,SSW,204,9.0,12.0,17,0.00,,,0.00,Wunderground v.1.15,2013-08-09 19:04:00,
2013-08-09 12:09:00,96.7,44.7,29.62,SSW,198,8.0,12.0,17,0.00,,,0.00,Wunderground v.1.15,2013-08-09 19:09:00,
2013-08-09 12:14:00,96.8,46.3,29.62,SSE,159,9.0,17.0,18,0.00,,,0.00,Wunderground v.1.15,2013-08-09 19:14:00,
2013-08-09 12:20:00,97.1,45.0,29.62,SSE,163,8.0,8.0,17,0.00,,,0.00,Wunderground v.1.15,2013-08-09 19:20:00,
2013-08-09 12:25:00,96.9,44.9,29.61,SW,217,7.0,10.0,17,0.00,,,0.00,Wunderground v.1.15,2013-08-09 19:25:00,
2013-08-09 12:31:00,97.1,45.0,29.61,West,271,9.0,9.0,17,0.00,,,0.00,Wunderground v.1.15,2013-08-09 19:31:00,
2013-08-09 12:37:00,97.4,43.7,29.61,SW,218,9.0,16.0,16,0.00,,,0.00,Wunderground v.1.15,2013-08-09 19:37:00,
2013-08-09 12:42:00,96.6,44.6,29.61,ESE,111,9.0,9.0,17,0.00,,,0.00,Wunderground v.1.15,2013-08-09 19:42:00,
2013-08-09 12:47:00,96.8,43.2,29.61,South,190,8.0,12.0,16,0.00,,,0.00,Wunderground v.1.15,2013-08-09 19:47:00,
2013-08-09 12:52:00,97.9,44.1,29.61,South,184,7.0,9.0,16,0.00,,,0.00,Wunderground v.1.15,2013-08-09 19:52:00,
2013-08-09 12:58:00,97.6,43.8,29.61,South,191,10.0,15.0,16,0.00,,,0.00,Wunderground v.1.15,2013-08-09 19:58:00,
2013-08-09 13:04:00,98.2,44.3,29.60,SSE,158,9.0,12.0,16,0.00,,,0.00,Wunderground v.1.15,2013-08-09 20:04:00,
2013-08-09 13:09:00,98.0,44.2,29.60,SW,219,8.0,12.0,16,0.00,,,0.00,Wunderground v.1.15,2013-08-09 20:09:00,
2013-08-09 13:14:00,97.5,43.8,29.61,SW,219,8.0,13.0,16,0.00,,,0.00,Wunderground v.1.15,2013-08-09 20:14:00,
2013-08-09 13:20:00,97.8,44.0,29.61,SE,138,9.0,10.0,16,0.00,,,0.00,Wunderground v.1.15,2013-08-09 20:20:00,
2013-08-09 13:26:00,98.0,44.2,29.60,South,181,10.0,13.0,16,0.00,,,0.00,Wunderground v.1.15,2013-08-09 20:26:00,
2013-08-09 13:32:00,98.4,44.5,29.60,ESE,118,7.0,10.0,16,0.00,,,0.00,Wunderground v.1.15,2013-08-09 20:32:00,
2013-08-09 13:37:00,97.8,44.0,29.60,SSW,201,4.0,10.0,16,0.00,,,0.00,Wunderground v.1.15,2013-08-09 20:37:00,
2013-08-09 13:42:00,97.3,43.6,29.60,South,183,5.0,10.0,16,0.00,,,0.00,Wunderground v.1.15,2013-08-09 20:42:00,
2013-08-09 13:48:00,97.1,43.4,29.60,SE,132,8.0,12.0,16,0.00,,,0.00,Wunderground v.1.15,2013-08-09 20:48:00,
2013-08-09 13:54:00,95.8,42.4,29.59,ESE,104,9.0,12.0,16,0.00,,,0.00,Wunderground v.1.15,2013-08-09 20:54:00,
2013-08-09 14:00:00,95.5,42.2,29.59,SE,129,7.0,7.0,16,0.00,,,0.00,Wunderground v.1.15,2013-08-09 21:00:00,
2013-08-09 14:06:00,95.9,40.8,29.59,SSW,195,7.0,13.0,15,0.00,,,0.00,Wunderground v.1.15,2013-08-09 21:06:00,
2013-08-09 14:11:00,97.1,41.8,29.59,South,170,7.0,8.0,15,0.00,,,0.00,Wunderground v.1.15,2013-08-09 21:11:00,
2013-08-09 14:17:00,98.4,42.8,29.59,SSE,162,6.0,10.0,15,0.00,,,0.00,Wunderground v.1.15,2013-08-09 21:17:00,
2013-08-09 14:23:00,98.7,43.0,29.59,SSW,197,7.0,15.0,15,0.00,,,0.00,Wunderground v.1.15,2013-08-09 21:23:00,
2013-08-09 14:29:00,99.0,41.5,29.59,SSE,162,9.0,15.0,14,0.00,,,0.00,Wunderground v.1.15,2013-08-09 21:29:00,
2013-08-09 14:35:00,98.4,42.8,29.58,East,86,9.0,13.0,15,0.00,,,0.00,Wunderground v.1.15,2013-08-09 21:35:00,
2013-08-09 14:41:00,99.1,41.6,29.58,West,273,7.0,7.0,14,0.00,,,0.00,Wunderground v.1.15,2013-08-09 21:41:00,
2013-08-09 14:47:00,97.8,42.3,29.58,SSW,207,8.0,14.0,15,0.00,,,0.00,Wunderground v.1.15,2013-08-09 21:47:00,
2013-08-09 14:52:00,97.3,41.9,29.58,SW,214,8.0,9.0,15,0.00,,,0.00,Wunderground v.1.15,2013-08-09 21:52:00,
2013-08-09 14:58:00,99.3,43.5,29.57,SSE,153,6.0,15.0,15,0.00,,,0.00,Wunderground v.1.15,2013-08-09 21:58:00,
2013-08-09 15:03:00,99.8,43.9,29.58,SSW,198,10.0,15.0,15,0.00,,,0.00,Wunderground v.1.15,2013-08-09 22:03:00,
2013-08-09 15:09:00,98.6,43.0,29.57,SE,141,10.0,15.0,15,0.00,,,0.00,Wunderground v.1.15,2013-08-09 22:09:00,
2013-08-09 15:14:00,98.6,44.6,29.57,SSE,162,8.0,16.0,16,0.00,,,0.00,Wunderground v.1.15,2013-08-09 22:14:00,
2013-08-09 15:20:00,98.6,44.6,29.57,SW,231,8.0,11.0,16,0.00,,,0.00,Wunderground v.1.15,2013-08-09 22:20:00,
2013-08-09 15:25:00,99.1,45.0,29.57,SE,135,8.0,15.0,16,0.00,,,0.00,Wunderground v.1.15,2013-08-09 22:25:00,
2013-08-09 15:31:00,98.0,44.2,29.57,SE,134,7.0,8.0,16,0.00,,,0.00,Wunderground v.1.15,2013-08-09 22:31:00,
2013-08-09 15:37:00,97.2,43.5,29.56,SSE,163,5.0,8.0,16,0.00,,,0.00,Wunderground v.1.15,2013-08-09 22:37:00,
2013-08-09 15:42:00,97.1,43.4,29.56,SW,224,5.0,13.0,16,0.00,,,0.00,Wunderground v.1.15,2013-08-09 22:42:00,
2013-08-09 15:48:00,96.9,44.9,29.56,SSW,197,7.0,17.0,17,0.00,,,0.00,Wunderground v.1.15,2013-08-09 22:48:00,
2013-08-09 15:53:00,96.7,44.7,29.56,SSW,204,11.0,15.0,17,0.00,,,0.00,Wunderground v.1.15,2013-08-09 22:53:00,
2013-08-09 15:59:00,97.1,45.0,29.56,NW,326,8.0,15.0,17,0.00,,,0.00,Wunderground v.1.15,2013-08-09 22:59:00,
2013-08-09 16:04:00,97.5,45.4,29.56,West,264,4.0,7.0,17,0.00,,,0.00,Wunderground v.1.15,2013-08-09 23:04:00,
2013-08-09 16:10:00,97.5,43.8,29.56,South,174,7.0,11.0,16,0.00,,,0.00,Wunderground v.1.15,2013-08-09 23:10:00,
2013-08-09 16:15:00,97.6,43.8,29.56,South,190,9.0,12.0,16,0.00,,,0.00,Wunderground v.1.15,2013-08-09 23:15:00,
2013-08-09 16:21:00,97.9,44.1,29.56,South,180,9.0,10.0,16,0.00,,,0.00,Wunderground v.1.15,2013-08-09 23:21:00,
2013-08-09 16:27:00,98.7,46.3,29.55,SSW,197,7.0,10.0,17,0.00,,,0.00,Wunderground v.1.15,2013-08-09 23:27:00,
2013-08-09 16:32:00,99.2,45.1,29.55,SSE,149,6.0,8.0,16,0.00,,,0.00,Wunderground v.1.15,2013-08-09 23:32:00,
2013-08-09 16:38:00,97.8,45.6,29.55,WSW,238,7.0,10.0,17,0.00,,,0.00,Wunderground v.1.15,2013-08-09 23:38:00,
2013-08-09 16:43:00,97.5,45.4,29.55,ESE,105,4.0,7.0,17,0.00,,,0.00,Wunderground v.1.15,2013-08-09 23:43:00,
2013-08-09 16:49:00,98.5,44.6,29.55,South,177,6.0,12.0,16,0.00,,,0.00,Wunderground v.1.15,2013-08-09 23:49:00,
2013-08-09 16:54:00,98.3,44.4,29.55,SW,214,8.0,13.0,16,0.00,,,0.00,Wunderground v.1.15,2013-08-09 23:54:00,
2013-08-09 17:00:00,97.8,45.6,29.55,WSW,257,8.0,8.0,17,0.00,,,0.00,Wunderground v.1.15,2013-08-10 00:00:00,
2013-08-09 17:05:00,97.1,45.0,29.55,South,187,8.0,14.0,17,0.00,,,0.00,Wunderground v.1.15,2013-08-10 00:05:00,
2013-08-09 17:11:00,96.8,44.8,29.55,SSW,201,8.0,8.0,17,0.00,,,0.00,Wunderground v.1.15,2013-08-10 00:11:00,
2013-08-09 17:17:00,96.8,44.8,29.55,South,176,6.0,8.0,17,0.00,,,0.00,Wunderground v.1.15,2013-08-10 00:17:00,
2013-08-09 17:22:00,96.3,44.4,29.55,SSW,195,6.0,7.0,17,0.00,,,0.00,Wunderground v.1.15,2013-08-10 00:22:00,
2013-08-09 17:27:00,96.7,44.7,29.54,SSE,147,7.0,7.0,17,0.00,,,0.00,Wunderground v.1.15,2013-08-10 00:27:00,
2013-08-09 17:32:00,96.7,44.7,29.55,SSW,204,6.0,7.0,17,0.00,,,0.00,Wunderground v.1.15,2013-08-10 00:32:00,
2013-08-09 17:38:00,95.8,44.0,29.54,SW,236,6.0,11.0,17,0.00,,,0.00,Wunderground v.1.15,2013-08-10 00:38:00,
2013-08-09 17:43:00,95.4,43.7,29.54,West,259,7.0,9.0,17,0.00,,,0.00,Wunderground v.1.15,2013-08-10 00:43:00,
2013-08-09 17:49:00,95.2,45.0,29.55,WSW,258,6.0,9.0,18,0.00,,,0.00,Wunderground v.1.15,2013-08-10 00:49:00,
2013-08-09 17:55:00,95.2,43.5,29.54,WSW,247,6.0,12.0,17,0.00,,,0.00,Wunderground v.1.15,2013-08-10 00:55:00,
2013-08-09 18:01:00,95.6,43.8,29.55,SW,217,7.0,11.0,17,0.00,,,0.00,Wunderground v.1.15,2013-08-10 01:01:00,
2013-08-09 18:07:00,96.0,44.2,29.55,SSE,155,6.0,11.0,17,0.00,,,0.00,Wunderground v.1.15,2013-08-10 01:07:00,
2013-08-09 18:12:00,95.3,43.6,29.55,SW,231,7.0,9.0,17,0.00,,,0.00,Wunderground v.1.15,2013-08-10 01:12:00,
2013-08-09 18:18:00,94.8,43.2,29.55,West,262,8.0,10.0,17,0.00,,,0.00,Wunderground v.1.15,2013-08-10 01:18:00,
2013-08-09 18:23:00,94.7,43.1,29.55,West,262,7.0,9.0,17,0.00,,,0.00,Wunderground v.1.15,2013-08-10 01:23:00,
2013-08-09 18:29:00,94.5,42.9,29.55,SW,233,6.0,11.0,17,0.00,,,0.00,Wunderground v.1.15,2013-08-10 01:29:00,
2013-08-09 18:34:00,94.5,42.9,29.55,SW,217,6.0,7.0,17,0.00,,,0.00,Wunderground v.1.15,2013-08-10 01:34:00,
2013-08-09 18:40:00,94.4,44.4,29.55,WSW,248,4.0,9.0,18,0.00,,,0.00,Wunderground v.1.15,2013-08-10 01:40:00,
2013-08-09 18:45:00,94.3,42.8,29.55,South,190,5.0,12.0,17,0.00,,,0.00,Wunderground v.1.15,2013-08-10 01:45:00,
2013-08-09 18:51:00,94.1,42.6,29.56,SW,232,6.0,6.0,17,0.00,,,0.00,Wunderground v.1.15,2013-08-10 01:51:00,
2013-08-09 18:57:00,93.9,42.5,29.56,WSW,239,4.0,6.0,17,0.00,,,0.00,Wunderground v.1.15,2013-08-10 01:57:00,
2013-08-09 19:03:00,93.8,42.4,29.56,WSW,256,4.0,6.0,17,0.00,,,0.00,Wunderground v.1.15,2013-08-10 02:03:00,
2013-08-09 19:09:00,93.8,42.4,29.56,WNW,295,5.0,9.0,17,0.00,,,0.00,Wunderground v.1.15,2013-08-10 02:09:00,
2013-08-09 19:14:00,93.8,42.4,29.56,West,273,7.0,13.0,17,0.00,,,0.00,Wunderground v.1.15,2013-08-10 02:14:00,
2013-08-09 19:20:00,93.7,42.3,29.56,WSW,251,8.0,9.0,17,0.00,,,0.00,Wunderground v.1.15,2013-08-10 02:20:00,
2013-08-09 19:25:00,93.6,42.2,29.56,West,260,6.0,9.0,17,0.00,,,0.00,Wunderground v.1.15,2013-08-10 02:25:00,
2013-08-09 19:30:00,93.4,42.1,29.56,West,281,4.0,4.0,17,0.00,,,0.00,Wunderground v.1.15,2013-08-10 02:30:00,
2013-08-09 19:36:00,93.3,42.0,29.56,WSW,252,4.0,10.0,17,0.00,,,0.00,Wunderground v.1.15,2013-08-10 02:36:00,
2013-08-09 19:41:00,93.3,42.0,29.56,WSW,247,5.0,5.0,17,0.00,,,0.00,Wunderground v.1.15,2013-08-10 02:41:00,
2013-08-09 19:47:00,93.1,43.3,29.57,West,262,5.0,7.0,18,0.00,,,0.00,Wunderground v.1.15,2013-08-10 02:47:00,
2013-08-09 19:52:00,92.8,43.1,29.57,SSW,200,4.0,5.0,18,0.00,,,0.00,Wunderground v.1.15,2013-08-10 02:52:00,
2013-08-09 19:58:00,92.6,41.4,29.57,West,262,4.0,7.0,17,0.00,,,0.00,Wunderground v.1.15,2013-08-10 02:58:00,
2013-08-09 20:03:00,92.7,41.5,29.58,WSW,257,6.0,8.0,17,0.00,,,0.00,Wunderground v.1.15,2013-08-10 03:03:00,
2013-08-09 20:09:00,92.5,41.3,29.58,SW,236,7.0,9.0,17,0.00,,,0.00,Wunderground v.1.15,2013-08-10 03:09:00,
2013-08-09 20:14:00,92.3,41.2,29.58,SW,233,7.0,11.0,17,0.00,,,0.00,Wunderground v.1.15,2013-08-10 03:14:00,
2013-08-09 20:20:00,92.2,41.1,29.58,West,260,7.0,7.0,17,0.00,,,0.00,Wunderground v.1.15,2013-08-10 03:20:00,
2013-08-09 20:26:00,91.9,40.9,29.58,SW,214,5.0,7.0,17,0.00,,,0.00,Wunderground v.1.15,2013-08-10 03:26:00,
2013-08-09 20:31:00,91.8,40.8,29.59,West,260,4.0,4.0,17,0.00,,,0.00,Wunderground v.1.15,2013-08-10 03:31:00,
2013-08-09 20:37:00,91.6,40.6,29.60,WSW,253,8.0,23.0,17,0.00,,,0.00,Wunderground v.1.15,2013-08-10 03:37:00,
2013-08-09 20:42:00,90.6,41.3,29.61,SW,222,13.0,16.0,18,0.00,,,0.00,Wunderground v.1.15,2013-08-10 03:42:00,
2013-08-09 20:48:00,89.9,40.7,29.61,West,274,12.0,16.0,18,0.00,,,0.00,Wunderground v.1.15,2013-08-10 03:48:00,
2013-08-09 20:54:00,89.7,40.6,29.62,WSW,256,11.0,13.0,18,0.00,,,0.00,Wunderground v.1.15,2013-08-10 03:54:00,
2013-08-09 21:00:00,89.4,40.3,29.62,West,269,12.0,12.0,18,0.00,,,0.00,Wunderground v.1.15,2013-08-10 04:00:00,
2013-08-09 21:01:00,89.4,40.3,29.62,WSW,246,12.0,12.0,18,0.00,,,0.00,Wunderground v.1.15,2013-08-10 04:01:00,
2013-08-09 21:03:00,89.4,40.3,29.62,WNW,301,12.0,19.0,18,0.00,,,0.00,Wunderground v.1.15,2013-08-10 04:03:00,
2013-08-09 21:04:00,89.4,40.3,29.62,WSW,254,12.0,19.0,18,0.00,,,0.00,Wunderground v.1.15,2013-08-10 04:04:00,
2013-08-09 21:09:00,89.2,40.1,29.62,WSW,243,12.0,19.0,18,0.00,,,0.00,Wunderground v.1.15,2013-08-10 04:09:00,
2013-08-09 21:14:00,89.1,40.1,29.62,SW,233,11.0,15.0,18,0.00,,,0.00,Wunderground v.1.15,2013-08-10 04:14:00,
2013-08-09 21:16:00,89.1,40.1,29.62,WNW,301,11.0,15.0,18,0.00,,,0.00,Wunderground v.1.15,2013-08-10 04:16:00,
2013-08-09 21:22:00,88.8,39.8,29.63,West,260,10.0,11.0,18,0.00,,,0.00,Wunderground v.1.15,2013-08-10 04:22:00,
2013-08-09 21:28:00,88.7,41.1,29.63,West,261,10.0,16.0,19,0.00,,,0.00,Wunderground v.1.15,2013-08-10 04:28:00,
2013-08-09 21:33:00,88.5,41.0,29.63,West,266,11.0,12.0,19,0.00,,,0.00,Wunderground v.1.15,2013-08-10 04:33:00,
2013-08-09 21:39:00,88.4,40.9,29.64,West,259,11.0,14.0,19,0.00,,,0.00,Wunderground v.1.15,2013-08-10 04:39:00,
2013-08-09 21:45:00,88.3,40.8,29.64,WSW,257,9.0,10.0,19,0.00,,,0.00,Wunderground v.1.15,2013-08-10 04:45:00,
2013-08-09 21:51:00,88.0,40.6,29.64,WNW,284,7.0,8.0,19,0.00,,,0.00,Wunderground v.1.15,2013-08-10 04:51:00,
2013-08-09 21:57:00,87.6,40.2,29.65,SW,226,6.0,10.0,19,0.00,,,0.00,Wunderground v.1.15,2013-08-10 04:57:00,
2013-08-09 22:02:00,87.4,40.1,29.65,SW,214,7.0,7.0,19,0.00,,,0.00,Wunderground v.1.15,2013-08-10 05:02:00,
2013-08-09 22:08:00,87.2,39.9,29.65,WSW,242,6.0,7.0,19,0.00,,,0.00,Wunderground v.1.15,2013-08-10 05:08:00,
2013-08-09 22:13:00,86.8,40.9,29.65,SSW,194,4.0,6.0,20,0.00,,,0.00,Wunderground v.1.15,2013-08-10 05:13:00,
2013-08-09 22:19:00,86.4,40.6,29.66,SW,224,2.0,6.0,20,0.00,,,0.00,Wunderground v.1.15,2013-08-10 05:19:00,
2013-08-09 22:24:00,85.3,40.9,29.66,SE,143,1.0,2.0,21,0.00,,,0.00,Wunderground v.1.15,2013-08-10 05:24:00,
2013-08-09 22:30:00,84.4,41.4,29.66,SE,141,0.0,1.0,22,0.00,,,0.00,Wunderground v.1.15,2013-08-10 05:30:00,
2013-08-09 22:35:00,84.1,41.1,29.66,SSW,207,1.0,2.0,22,0.00,,,0.00,Wunderground v.1.15,2013-08-10 05:35:00,
2013-08-09 22:41:00,83.3,41.6,29.66,SSW,207,1.0,1.0,23,0.00,,,0.00,Wunderground v.1.15,2013-08-10 05:41:00,
2013-08-09 22:47:00,83.3,40.5,29.66,WNW,295,1.0,3.0,22,0.00,,,0.00,Wunderground v.1.15,2013-08-10 05:47:00,
2013-08-09 22:52:00,83.6,40.7,29.66,WNW,295,1.0,1.0,22,0.00,,,0.00,Wunderground v.1.15,2013-08-10 05:52:00,
2013-08-09 22:58:00,83.4,40.6,29.66,WNW,283,0.0,1.0,22,0.00,,,0.00,Wunderground v.1.15,2013-08-10 05:58:00,
2013-08-09 23:03:00,83.6,39.5,29.67,West,266,0.0,1.0,21,0.00,,,0.00,Wunderground v.1.15,2013-08-10 06:03:00,
2013-08-09 23:08:00,83.5,39.4,29.67,South,184,1.0,2.0,21,0.00,,,0.00,Wunderground v.1.15,2013-08-10 06:08:00,
2013-08-09 23:13:00,83.5,39.4,29.67,WSW,240,1.0,3.0,21,0.00,,,0.00,Wunderground v.1.15,2013-08-10 06:13:00,
2013-08-09 23:19:00,83.9,35.8,29.67,West,262,2.0,6.0,18,0.00,,,0.00,Wunderground v.1.15,2013-08-10 06:19:00,
2013-08-09 23:24:00,83.9,35.8,29.66,West,273,3.0,4.0,18,0.00,,,0.00,Wunderground v.1.15,2013-08-10 06:24:00,
2013-08-09 23:30:00,84.0,35.9,29.66,West,276,3.0,5.0,18,0.00,,,0.00,Wunderground v.1.15,2013-08-10 06:30:00,
2013-08-09 23:36:00,84.3,34.7,29.67,West,275,4.0,6.0,17,0.00,,,0.00,Wunderground v.1.15,2013-08-10 06:36:00,
2013-08-09 23:42:00,84.4,34.8,29.67,West,280,3.0,3.0,17,0.00,,,0.00,Wunderground v.1.15,2013-08-10 06:42:00,
2013-08-09 23:48:00,84.2,34.6,29.67,WNW,284,2.0,5.0,17,0.00,,,0.00,Wunderground v.1.15,2013-08-10 06:48:00,
2013-08-09 23:53:00,84.1,36.0,29.67,NW,321,2.0,3.0,18,0.00,,,0.00,Wunderground v.1.15,2013-08-10 06:53:00,
2013-08-09 23:59:00,83.4,35.4,29.67,WNW,287,3.0,4.0,18,0.00,,,0.00,Wunderground v.1.15,2013-08-10 06:59:00,